Time,TemperatureF,DewpointF,PressureIn,WindDirection,WindDirectionDegrees,WindSpeedMPH,WindSpeedGustMPH,Humidity,HourlyPrecipIn,Conditions,Clouds,dailyrainin,SoftwareType,DateUTC
2013-04-14 00:04:00,57.2,35.5,29.71,NE,45,1.7,-999.0,44,-99.99,,,0.00,Acu-Link.com,2013-04-14 04:04:00,
2013-04-14 00:19:00,57.4,34.5,29.72,NNE,22,1.7,-999.0,42,-99.99,,,0.00,Acu-Link.com,2013-04-14 04:19:00,
2013-04-14 00:34:00,56.5,34.9,29.72,SW,225,0.0,-999.0,44,-99.99,,,0.00,Acu-Link.com,2013-04-14 04:34:00,
2013-04-14 00:49:00,55.9,34.3,29.73,NE,45,2.2,-999.0,44,-99.99,,,0.00,Acu-Link.com,2013-04-14 04:49:00,
2013-04-14 01:04:00,56.5,34.3,29.73,North,0,0.0,-999.0,43,-99.99,,,0.00,Acu-Link.com,2013-04-14 05:04:00,
2013-04-14 01:20:00,57.2,34.9,29.73,NE,45,2.2,-999.0,43,-99.99,,,0.00,Acu-Link.com,2013-04-14 05:20:00,
2013-04-14 01:35:00,57.2,34.3,29.73,NNW,337,1.7,-999.0,42,-99.99,,,0.00,Acu-Link.com,2013-04-14 05:35:00,
2013-04-14 01:50:00,56.8,34.0,29.72,NE,45,0.0,-999.0,42,-99.99,,,0.00,Acu-Link.com,2013-04-14 05:50:00,
2013-04-14 02:05:00,56.5,33.7,29.72,North,0,1.1,-999.0,42,-99.99,,,0.00,Acu-Link.com,2013-04-14 06:05:00,
2013-04-14 02:36:00,56.1,33.9,29.72,North,0,0.0,-999.0,43,-99.99,,,0.00,Acu-Link.com,2013-04-14 06:36:00,
2013-04-14 02:51:00,54.7,33.8,29.71,NE,45,1.7,-999.0,45,-99.99,,,0.00,Acu-Link.com,2013-04-14 06:51:00,
2013-04-14 03:07:00,54.9,34.0,29.71,SSW,202,0.0,-999.0,45,-99.99,,,0.00,Acu-Link.com,2013-04-14 07:07:00,
2013-04-14 03:22:00,54.7,34.3,29.71,SSE,157,2.2,-999.0,46,-99.99,,,0.00,Acu-Link.com,2013-04-14 07:22:00,
2013-04-14 03:37:00,54.0,34.2,29.71,ESE,112,0.0,-999.0,47,-99.99,,,0.00,Acu-Link.com,2013-04-14 07:37:00,
2013-04-14 03:52:00,53.4,33.7,29.71,East,90,1.7,-999.0,47,-99.99,,,0.00,Acu-Link.com,2013-04-14 07:52:00,
2013-04-14 04:08:00,53.6,33.9,29.72,East,90,2.2,-999.0,47,-99.99,,,0.00,Acu-Link.com,2013-04-14 08:08:00,
2013-04-14 04:24:00,53.4,33.7,29.71,East,90,1.7,-999.0,47,-99.99,,,0.00,Acu-Link.com,2013-04-14 08:24:00,
2013-04-14 04:39:00,53.1,33.9,29.71,East,90,2.2,-999.0,48,-99.99,,,0.00,Acu-Link.com,2013-04-14 08:39:00,
2013-04-14 04:54:00,52.3,33.7,29.72,East,90,1.1,-999.0,49,-99.99,,,0.00,Acu-Link.com,2013-04-14 08:54:00,
2013-04-14 05:09:00,51.1,35.0,29.72,East,90,0.0,-999.0,54,-99.99,,,0.00,Acu-Link.com,2013-04-14 09:09:00,
2013-04-14 05:24:00,50.4,34.8,29.72,East,90,1.7,-999.0,55,-99.99,,,0.00,Acu-Link.com,2013-04-14 09:24:00,
2013-04-14 05:39:00,49.8,34.3,29.72,ESE,112,0.0,-999.0,55,-99.99,,,0.00,Acu-Link.com,2013-04-14 09:39:00,
2013-04-14 05:54:00,49.1,35.0,29.71,ENE,67,1.1,-999.0,58,-99.99,,,0.00,Acu-Link.com,2013-04-14 09:54:00,
2013-04-14 06:10:00,48.6,34.5,29.71,East,90,1.1,-999.0,58,-99.99,,,0.00,Acu-Link.com,2013-04-14 10:10:00,
2013-04-14 06:25:00,48.2,34.6,29.73,ESE,112,0.0,-999.0,59,-99.99,,,0.00,Acu-Link.com,2013-04-14 10:25:00,
2013-04-14 06:40:00,47.8,35.0,29.73,ESE,112,0.0,-999.0,61,-99.99,,,0.00,Acu-Link.com,2013-04-14 10:40:00,
2013-04-14 06:56:00,47.5,34.3,29.75,ESE,112,0.0,-999.0,60,-99.99,,,0.00,Acu-Link.com,2013-04-14 10:56:00,
2013-04-14 07:26:00,47.5,34.7,29.75,NE,45,1.7,-999.0,61,-99.99,,,0.00,Acu-Link.com,2013-04-14 11:26:00,
2013-04-14 07:41:00,47.8,36.2,29.76,SSW,202,2.2,-999.0,64,-99.99,,,0.00,Acu-Link.com,2013-04-14 11:41:00,
2013-04-14 07:56:00,48.7,37.5,29.77,NE,45,0.0,-999.0,65,-99.99,,,0.00,Acu-Link.com,2013-04-14 11:56:00,
2013-04-14 08:12:00,49.8,40.0,29.76,NNW,337,0.0,-999.0,69,-99.99,,,0.00,Acu-Link.com,2013-04-14 12:12:00,
2013-04-14 08:27:00,50.7,39.8,29.77,SSW,202,1.1,-999.0,66,-99.99,,,0.00,Acu-Link.com,2013-04-14 12:27:00,
2013-04-14 08:42:00,52.5,38.6,29.77,North,0,0.0,-999.0,59,-99.99,,,0.00,Acu-Link.com,2013-04-14 12:42:00,
2013-04-14 08:57:00,53.6,37.8,29.77,NNW,337,0.0,-999.0,55,-99.99,,,0.00,Acu-Link.com,2013-04-14 12:57:00,
2013-04-14 09:13:00,56.5,38.1,29.78,South,180,0.0,-999.0,50,-99.99,,,0.00,Acu-Link.com,2013-04-14 13:13:00,
2013-04-14 09:28:00,60.6,36.1,29.78,SSW,202,4.7,-999.0,40,-99.99,,,0.00,Acu-Link.com,2013-04-14 13:28:00,
2013-04-14 09:43:00,61.9,36.7,29.78,South,180,0.0,-999.0,39,-99.99,,,0.00,Acu-Link.com,2013-04-14 13:43:00,
2013-04-14 09:58:00,63.7,38.3,29.77,NNE,22,1.1,-999.0,39,-99.99,,,0.00,Acu-Link.com,2013-04-14 13:58:00,
2013-04-14 10:14:00,64.8,37.9,29.76,NNW,337,1.1,-999.0,37,-99.99,,,0.00,Acu-Link.com,2013-04-14 14:14:00,
2013-04-14 10:44:00,67.1,37.8,29.76,NNW,337,1.1,-999.0,34,-99.99,,,0.00,Acu-Link.com,2013-04-14 14:44:00,
2013-04-14 10:59:00,68.2,38.8,29.77,West,270,2.7,-999.0,34,-99.99,,,0.00,Acu-Link.com,2013-04-14 14:59:00,
2013-04-14 11:14:00,68.0,37.8,29.77,West,270,1.7,-999.0,33,-99.99,,,0.00,Acu-Link.com,2013-04-14 15:14:00,
2013-04-14 11:30:00,68.4,38.2,29.77,ESE,112,0.0,-999.0,33,-99.99,,,0.00,Acu-Link.com,2013-04-14 15:30:00,
2013-04-14 11:45:00,68.0,38.6,29.77,NE,45,1.7,-999.0,34,-99.99,,,0.00,Acu-Link.com,2013-04-14 15:45:00,
2013-04-14 12:00:00,69.1,40.3,29.77,West,270,1.1,-999.0,35,-99.99,,,0.00,Acu-Link.com,2013-04-14 16:00:00,
2013-04-14 12:16:00,68.2,39.5,29.77,NE,45,1.1,-999.0,35,-99.99,,,0.00,Acu-Link.com,2013-04-14 16:16:00,
2013-04-14 12:46:00,68.5,39.8,29.77,SSW,202,7.3,-999.0,35,-99.99,,,0.00,Acu-Link.com,2013-04-14 16:46:00,
2013-04-14 13:01:00,68.0,40.8,29.77,WNW,292,1.1,-999.0,37,-99.99,,,0.00,Acu-Link.com,2013-04-14 17:01:00,
2013-04-14 13:17:00,66.6,40.2,29.76,SSW,202,3.7,-999.0,38,-99.99,,,0.00,Acu-Link.com,2013-04-14 17:17:00,
2013-04-14 13:32:00,66.6,41.5,29.76,SSW,202,5.8,-999.0,40,-99.99,,,0.00,Acu-Link.com,2013-04-14 17:32:00,
2013-04-14 13:47:00,65.5,41.2,29.76,ENE,67,2.2,-999.0,41,-99.99,,,0.00,Acu-Link.com,2013-04-14 17:47:00,
2013-04-14 14:02:00,65.3,42.2,29.75,SSW,202,1.7,-999.0,43,-99.99,,,0.00,Acu-Link.com,2013-04-14 18:02:00,
2013-04-14 14:18:00,65.5,41.8,29.75,SW,225,3.2,-999.0,42,-99.99,,,0.00,Acu-Link.com,2013-04-14 18:18:00,
2013-04-14 14:33:00,66.2,42.4,29.75,SSW,202,3.7,-999.0,42,-99.99,,,0.00,Acu-Link.com,2013-04-14 18:33:00,
2013-04-14 14:48:00,65.3,42.2,29.75,SW,225,3.7,-999.0,43,-99.99,,,0.00,Acu-Link.com,2013-04-14 18:48:00,
2013-04-14 15:18:00,64.8,43.0,29.74,WNW,292,2.2,-999.0,45,-99.99,,,0.00,Acu-Link.com,2013-04-14 19:18:00,
2013-04-14 15:33:00,65.1,43.2,29.74,SW,225,2.2,-999.0,45,-99.99,,,0.00,Acu-Link.com,2013-04-14 19:33:00,
2013-04-14 15:48:00,64.6,42.8,29.74,South,180,5.8,-999.0,45,-99.99,,,0.00,Acu-Link.com,2013-04-14 19:48:00,
2013-04-14 16:03:00,64.4,42.6,29.73,South,180,2.2,-999.0,45,-99.99,,,0.00,Acu-Link.com,2013-04-14 20:03:00,
2013-04-14 16:19:00,64.2,43.0,29.73,SSW,202,1.7,-999.0,46,-99.99,,,0.00,Acu-Link.com,2013-04-14 20:19:00,
2013-04-14 16:34:00,63.7,43.6,29.73,NNW,337,2.2,-999.0,48,-99.99,,,0.00,Acu-Link.com,2013-04-14 20:34:00,
2013-04-14 16:49:00,63.7,44.7,29.73,SSW,202,4.7,-999.0,50,-99.99,,,0.00,Acu-Link.com,2013-04-14 20:49:00,
2013-04-14 17:05:00,63.5,44.5,29.73,WSW,247,1.1,-999.0,50,-99.99,,,0.00,Acu-Link.com,2013-04-14 21:05:00,
2013-04-14 17:20:00,63.0,45.1,29.72,South,180,3.7,-999.0,52,-99.99,,,0.00,Acu-Link.com,2013-04-14 21:20:00,
2013-04-14 17:35:00,62.8,45.4,29.72,SW,225,3.7,-999.0,53,-99.99,,,0.00,Acu-Link.com,2013-04-14 21:35:00,
2013-04-14 17:50:00,62.8,45.9,29.72,NNE,22,1.7,-999.0,54,-99.99,,,0.00,Acu-Link.com,2013-04-14 21:50:00,
2013-04-14 18:05:00,62.1,43.8,29.71,SW,225,3.7,-999.0,51,-99.99,,,0.00,Acu-Link.com,2013-04-14 22:05:00,
2013-04-14 18:36:00,61.7,42.3,29.69,NW,315,2.7,-999.0,49,-99.99,,,0.00,Acu-Link.com,2013-04-14 22:36:00,
2013-04-14 18:51:00,61.3,43.5,29.69,SW,225,4.7,-999.0,52,-99.99,,,0.00,Acu-Link.com,2013-04-14 22:51:00,
2013-04-14 19:07:00,60.3,46.8,29.69,SW,225,1.7,-999.0,61,-99.99,,,0.00,Acu-Link.com,2013-04-14 23:07:00,
2013-04-14 19:37:00,57.7,47.6,29.67,SSW,202,4.2,-999.0,69,-99.99,,,0.00,Acu-Link.com,2013-04-14 23:37:00,
2013-04-14 19:52:00,56.7,47.4,29.66,SSW,202,3.7,-999.0,71,-99.99,,,0.00,Acu-Link.com,2013-04-14 23:52:00,
2013-04-14 20:08:00,56.1,47.2,29.66,SSW,202,3.7,-999.0,72,-99.99,,,0.00,Acu-Link.com,2013-04-15 00:08:00,
2013-04-14 20:23:00,55.9,47.4,29.66,SSW,202,1.7,-999.0,73,-99.99,,,0.00,Acu-Link.com,2013-04-15 00:23:00,
2013-04-14 20:38:00,55.4,47.3,29.68,WNW,292,1.7,-999.0,74,-99.99,,,0.00,Acu-Link.com,2013-04-15 00:38:00,
2013-04-14 20:53:00,55.4,47.3,29.68,WNW,292,0.0,-999.0,74,-99.99,,,0.00,Acu-Link.com,2013-04-15 00:53:00,
2013-04-14 21:08:00,55.4,47.3,29.69,WNW,292,0.0,-999.0,74,-99.99,,,0.00,Acu-Link.com,2013-04-15 01:08:00,
2013-04-14 21:24:00,55.4,47.3,29.70,West,270,0.0,-999.0,74,-99.99,,,0.00,Acu-Link.com,2013-04-15 01:24:00,
2013-04-14 21:39:00,55.6,47.1,29.69,SW,225,0.0,-999.0,73,-99.99,,,0.00,Acu-Link.com,2013-04-15 01:39:00,
2013-04-14 21:54:00,55.4,47.3,29.69,NNE,22,1.1,-999.0,74,-99.99,,,0.00,Acu-Link.com,2013-04-15 01:54:00,
2013-04-14 22:09:00,55.6,46.3,29.69,ENE,67,1.7,-999.0,71,-99.99,,,0.00,Acu-Link.com,2013-04-15 02:09:00,
2013-04-14 22:25:00,55.8,46.2,29.68,West,270,0.0,-999.0,70,-99.99,,,0.00,Acu-Link.com,2013-04-15 02:25:00,
2013-04-14 22:40:00,56.3,46.6,29.68,WSW,247,1.1,-999.0,70,-99.99,,,0.00,Acu-Link.com,2013-04-15 02:40:00,
2013-04-14 22:55:00,56.5,46.5,29.68,SSW,202,3.7,-999.0,69,-99.99,,,0.00,Acu-Link.com,2013-04-15 02:55:00,
2013-04-14 23:10:00,55.0,46.9,29.68,WNW,292,0.0,-999.0,74,-99.99,,,0.00,Acu-Link.com,2013-04-15 03:10:00,
2013-04-14 23:26:00,53.2,47.2,29.68,ESE,112,1.1,-999.0,80,-99.99,,,0.01,Acu-Link.com,2013-04-15 03:26:00,
2013-04-14 23:41:00,52.7,47.4,29.68,NNW,337,0.0,-999.0,82,-99.99,,,0.02,Acu-Link.com,2013-04-15 03:41:00,
2013-04-14 23:56:00,51.1,48.0,29.69,NNE,22,0.0,-999.0,89,-99.99,,,0.04,Acu-Link.com,2013-04-15 03:56:00,